Time,TemperatureF,DewpointF,PressureIn,WindDirection,WindDirectionDegrees,WindSpeedMPH,WindSpeedGustMPH,Humidity,HourlyPrecipIn,Conditions,Clouds,dailyrainin,SolarRadiationWatts/m^2,SoftwareType,DateUTC
2013-09-01 00:03:00,-999.0,-99.9,-100.00,SSW,195,3.0,9.0,-999,-99.99,,,-99.99,0.000000,,2013-09-01 04:03:00,
2013-09-01 00:14:00,76.0,76.0,-100.00,SSW,195,3.0,9.0,100,0.00,,,0.00,0.000000,,2013-09-01 04:14:00,
2013-09-01 00:25:00,76.0,76.0,-100.00,SSW,195,3.0,9.0,100,0.00,,,0.00,0.000000,,2013-09-01 04:25:00,
2013-09-01 00:54:00,75.0,75.0,-100.00,SSW,207,3.0,9.0,100,0.00,,,0.00,0.000000,,2013-09-01 04:54:00,
2013-09-01 01:03:00,75.0,75.0,-100.00,SSW,207,3.0,9.0,100,0.00,,,0.00,0.000000,,2013-09-01 05:03:00,
2013-09-01 01:13:00,75.0,75.0,-100.00,SSW,207,3.0,9.0,100,0.00,,,0.00,0.000000,,2013-09-01 05:13:00,
2013-09-01 01:23:00,75.0,75.0,-100.00,SSW,207,3.0,9.0,100,0.00,,,0.00,0.000000,,2013-09-01 05:23:00,
2013-09-01 01:52:00,75.0,75.0,-100.00,SW,215,3.0,9.0,100,0.00,,,0.00,0.000000,,2013-09-01 05:52:00,
2013-09-01 02:03:00,75.0,75.0,-100.00,SW,215,3.0,9.0,100,0.00,,,0.00,0.000000,,2013-09-01 06:03:00,
2013-09-01 02:13:00,75.0,75.0,-100.00,SW,215,3.0,9.0,100,0.00,,,0.00,0.000000,,2013-09-01 06:13:00,
2013-09-01 02:22:00,75.0,75.0,-100.00,SW,215,3.0,9.0,100,0.00,,,0.00,0.000000,,2013-09-01 06:22:00,
2013-09-01 02:52:00,75.0,75.0,-100.00,SSW,211,3.0,11.0,100,0.00,,,0.00,0.000000,,2013-09-01 06:52:00,
2013-09-01 03:02:00,75.0,75.0,-100.00,SSW,211,3.0,11.0,100,0.00,,,0.00,0.000000,,2013-09-01 07:02:00,
2013-09-01 03:13:00,75.0,75.0,-100.00,SSW,211,3.0,11.0,100,0.00,,,0.00,0.000000,,2013-09-01 07:13:00,
2013-09-01 03:22:00,75.0,75.0,-100.00,SSW,211,3.0,11.0,100,0.00,,,0.00,0.000000,,2013-09-01 07:22:00,
2013-09-01 03:52:00,75.0,75.0,-100.00,SW,221,3.0,9.0,100,0.00,,,0.00,0.000000,,2013-09-01 07:52:00,
2013-09-01 04:02:00,75.0,75.0,-100.00,SW,221,3.0,9.0,100,0.00,,,0.00,0.000000,,2013-09-01 08:02:00,
2013-09-01 04:11:00,75.0,75.0,-100.00,SW,221,3.0,9.0,100,0.00,,,0.00,0.000000,,2013-09-01 08:11:00,
2013-09-01 04:22:00,75.0,75.0,-100.00,SW,221,3.0,9.0,100,0.00,,,0.00,0.000000,,2013-09-01 08:22:00,
2013-09-01 04:52:00,75.0,75.0,-100.00,SW,226,3.0,10.0,100,0.00,,,0.00,0.000000,,2013-09-01 08:52:00,
2013-09-01 05:02:00,75.0,75.0,-100.00,SW,226,3.0,10.0,100,0.00,,,0.00,0.000000,,2013-09-01 09:02:00,
2013-09-01 05:11:00,75.0,75.0,-100.00,SW,226,3.0,10.0,100,0.00,,,0.00,0.000000,,2013-09-01 09:11:00,
2013-09-01 05:22:00,75.0,75.0,-100.00,SW,226,3.0,10.0,100,0.00,,,0.00,0.000000,,2013-09-01 09:22:00,
2013-09-01 05:53:00,75.0,75.0,-100.00,SSW,212,3.0,10.0,100,0.00,,,0.00,0.000000,,2013-09-01 09:53:00,
2013-09-01 06:03:00,75.0,75.0,-100.00,SSW,212,3.0,10.0,100,0.00,,,0.00,0.000000,,2013-09-01 10:03:00,
2013-09-01 06:13:00,75.0,75.0,-100.00,SSW,212,3.0,10.0,100,0.00,,,0.00,0.000000,,2013-09-01 10:13:00,
2013-09-01 06:23:00,75.0,75.0,-100.00,SSW,212,3.0,10.0,100,0.00,,,0.00,0.000000,,2013-09-01 10:23:00,
2013-09-01 06:53:00,74.0,74.0,-100.00,SW,219,1.0,6.0,100,0.00,,,0.00,0.000000,,2013-09-01 10:53:00,
2013-09-01 07:02:00,74.0,74.0,-100.00,SW,219,1.0,6.0,100,0.00,,,0.00,0.000000,,2013-09-01 11:02:00,
2013-09-01 07:12:00,74.0,74.0,-100.00,SW,219,1.0,6.0,100,0.00,,,0.00,0.000000,,2013-09-01 11:12:00,
2013-09-01 07:22:00,74.0,74.0,-100.00,SW,219,1.0,6.0,100,0.00,,,0.00,0.000000,,2013-09-01 11:22:00,
2013-09-01 07:52:00,74.0,74.0,-100.00,SW,229,2.0,6.0,100,0.00,,,0.00,18.000000,,2013-09-01 11:52:00,
2013-09-01 08:01:00,74.0,74.0,-100.00,SW,229,2.0,6.0,100,0.00,,,0.00,18.000000,,2013-09-01 12:01:00,
2013-09-01 08:12:00,74.0,74.0,-100.00,SW,229,2.0,6.0,100,0.00,,,0.00,18.000000,,2013-09-01 12:12:00,
2013-09-01 08:22:00,74.0,74.0,-100.00,SW,229,2.0,6.0,100,0.00,,,0.00,18.000000,,2013-09-01 12:22:00,
2013-09-01 08:52:00,77.0,77.0,-100.00,SW,235,5.0,10.0,100,0.00,,,0.00,82.000000,,2013-09-01 12:52:00,
2013-09-01 09:02:00,77.0,77.0,-100.00,SW,235,5.0,10.0,100,0.00,,,0.00,82.000000,,2013-09-01 13:02:00,
2013-09-01 09:11:00,77.0,77.0,-100.00,SW,235,5.0,10.0,100,0.00,,,0.00,82.000000,,2013-09-01 13:11:00,
2013-09-01 09:21:00,77.0,77.0,-100.00,SW,235,5.0,10.0,100,0.00,,,0.00,82.000000,,2013-09-01 13:21:00,
2013-09-01 11:11:00,87.0,78.0,-100.00,SW,231,4.0,13.0,75,0.00,,,0.00,529.000000,,2013-09-01 15:11:00,
2013-09-01 11:23:00,87.0,78.0,-100.00,SW,231,4.0,13.0,75,0.00,,,0.00,529.000000,,2013-09-01 15:23:00,
2013-09-01 11:55:00,89.0,77.0,-100.00,WSW,239,5.0,10.0,67,0.00,,,0.00,592.000000,,2013-09-01 15:55:00,
2013-09-01 12:05:00,89.0,77.0,-100.00,WSW,239,5.0,10.0,67,0.00,,,0.00,592.000000,,2013-09-01 16:05:00,
2013-09-01 12:14:00,89.0,77.0,-100.00,WSW,239,5.0,10.0,67,0.00,,,0.00,592.000000,,2013-09-01 16:14:00,
2013-09-01 12:24:00,89.0,77.0,-100.00,WSW,239,5.0,10.0,67,0.00,,,0.00,592.000000,,2013-09-01 16:24:00,
2013-09-01 12:53:00,90.0,77.0,-100.00,WSW,246,5.0,13.0,66,0.00,,,0.00,707.000000,,2013-09-01 16:53:00,
2013-09-01 13:03:00,90.0,77.0,-100.00,WSW,246,5.0,13.0,66,0.00,,,0.00,707.000000,,2013-09-01 17:03:00,
2013-09-01 13:12:00,90.0,77.0,-100.00,WSW,246,5.0,13.0,66,0.00,,,0.00,707.000000,,2013-09-01 17:12:00,
2013-09-01 13:23:00,90.0,77.0,-100.00,WSW,246,5.0,13.0,66,0.00,,,0.00,707.000000,,2013-09-01 17:23:00,
2013-09-01 13:52:00,88.0,78.0,-100.00,WSW,251,4.0,12.0,73,0.00,,,0.00,584.000000,,2013-09-01 17:52:00,
2013-09-01 14:02:00,88.0,78.0,-100.00,WSW,251,4.0,12.0,73,0.00,,,0.00,584.000000,,2013-09-01 18:02:00,
2013-09-01 14:13:00,88.0,78.0,-100.00,WSW,251,4.0,12.0,73,0.00,,,0.00,584.000000,,2013-09-01 18:13:00,
2013-09-01 14:22:00,88.0,78.0,-100.00,WSW,251,4.0,12.0,73,0.00,,,0.00,584.000000,,2013-09-01 18:22:00,
2013-09-01 14:52:00,85.0,76.0,-100.00,SE,131,8.0,15.0,75,0.00,,,-99.99,666.000000,,2013-09-01 18:52:00,
2013-09-01 15:02:00,85.0,76.0,-100.00,SE,131,8.0,15.0,75,0.00,,,-99.99,666.000000,,2013-09-01 19:02:00,
2013-09-01 15:12:00,85.0,76.0,-100.00,SE,131,8.0,15.0,75,0.00,,,-99.99,666.000000,,2013-09-01 19:12:00,
2013-09-01 15:22:00,85.0,76.0,-100.00,SE,131,8.0,15.0,75,0.00,,,-99.99,666.000000,,2013-09-01 19:22:00,
2013-09-01 15:52:00,84.0,76.0,-100.00,SSE,154,5.0,16.0,78,0.00,,,-99.99,462.000000,,2013-09-01 19:52:00,
2013-09-01 16:03:00,84.0,76.0,-100.00,SSE,154,5.0,16.0,78,0.00,,,-99.99,462.000000,,2013-09-01 20:03:00,
2013-09-01 16:12:00,84.0,76.0,-100.00,SSE,154,5.0,16.0,78,0.00,,,-99.99,462.000000,,2013-09-01 20:12:00,
2013-09-01 16:22:00,84.0,76.0,-100.00,SSE,154,5.0,16.0,78,0.00,,,-99.99,462.000000,,2013-09-01 20:22:00,
2013-09-01 16:52:00,89.0,80.0,-100.00,SE,142,5.0,10.0,74,0.00,,,0.00,574.000000,,2013-09-01 20:52:00,
2013-09-01 17:02:00,89.0,80.0,-100.00,SE,142,5.0,10.0,74,0.00,,,0.00,574.000000,,2013-09-01 21:02:00,
2013-09-01 17:11:00,89.0,80.0,-100.00,SE,142,5.0,10.0,74,0.00,,,0.00,574.000000,,2013-09-01 21:11:00,
2013-09-01 17:22:00,89.0,80.0,-100.00,SE,142,5.0,10.0,74,0.00,,,0.00,574.000000,,2013-09-01 21:22:00,
2013-09-01 17:55:00,87.0,79.0,-100.00,SSE,153,4.0,12.0,77,0.00,,,0.00,378.000000,,2013-09-01 21:55:00,
2013-09-01 18:04:00,87.0,79.0,-100.00,SSE,153,4.0,12.0,77,0.00,,,0.00,378.000000,,2013-09-01 22:04:00,
2013-09-01 18:15:00,87.0,79.0,-100.00,SSE,153,4.0,12.0,77,0.00,,,0.00,378.000000,,2013-09-01 22:15:00,
2013-09-01 18:24:00,87.0,79.0,-100.00,SSE,153,4.0,12.0,77,0.00,,,0.00,378.000000,,2013-09-01 22:24:00,
2013-09-01 18:54:00,85.0,80.0,-100.00,SSE,156,4.0,8.0,85,0.00,,,0.00,197.000000,,2013-09-01 22:54:00,
2013-09-01 19:03:00,85.0,80.0,-100.00,SSE,156,4.0,8.0,85,0.00,,,0.00,197.000000,,2013-09-01 23:03:00,
2013-09-01 19:12:00,85.0,80.0,-100.00,SSE,156,4.0,8.0,85,0.00,,,0.00,197.000000,,2013-09-01 23:12:00,
2013-09-01 19:23:00,85.0,80.0,-100.00,SSE,156,4.0,8.0,85,0.00,,,0.00,197.000000,,2013-09-01 23:23:00,
2013-09-01 19:53:00,80.0,80.0,-100.00,South,169,3.0,10.0,100,0.00,,,0.00,70.000000,,2013-09-01 23:53:00,
2013-09-01 20:02:00,80.0,80.0,-100.00,South,169,3.0,10.0,100,0.00,,,0.00,70.000000,,2013-09-02 00:02:00,
2013-09-01 20:11:00,80.0,80.0,-100.00,South,169,3.0,10.0,100,0.00,,,0.00,70.000000,,2013-09-02 00:11:00,
2013-09-01 20:22:00,80.0,80.0,-100.00,South,169,3.0,10.0,100,0.00,,,0.00,70.000000,,2013-09-02 00:22:00,
2013-09-01 20:52:00,78.0,78.0,-100.00,SSE,161,2.0,7.0,100,0.00,,,0.00,0.000000,,2013-09-02 00:52:00,
2013-09-01 21:02:00,78.0,78.0,-100.00,SSE,161,2.0,7.0,100,0.00,,,0.00,0.000000,,2013-09-02 01:02:00,
2013-09-01 21:12:00,78.0,78.0,-100.00,SSE,161,2.0,7.0,100,0.00,,,0.00,0.000000,,2013-09-02 01:12:00,
2013-09-01 21:22:00,78.0,78.0,-100.00,SSE,161,2.0,7.0,100,0.00,,,0.00,0.000000,,2013-09-02 01:22:00,
2013-09-01 21:53:00,77.0,77.0,-100.00,SSW,193,1.0,6.0,100,0.00,,,0.00,0.000000,,2013-09-02 01:53:00,
2013-09-01 22:02:00,77.0,77.0,-100.00,SSW,193,1.0,6.0,100,0.00,,,0.00,0.000000,,2013-09-02 02:02:00,
2013-09-01 22:12:00,77.0,77.0,-100.00,SSW,193,1.0,6.0,100,0.00,,,0.00,0.000000,,2013-09-02 02:12:00,
2013-09-01 22:22:00,77.0,77.0,-100.00,SSW,193,1.0,6.0,100,0.00,,,0.00,0.000000,,2013-09-02 02:22:00,
2013-09-01 22:52:00,77.0,77.0,-100.00,South,187,1.0,4.0,100,0.00,,,0.00,0.000000,,2013-09-02 02:52:00,
2013-09-01 23:02:00,77.0,77.0,-100.00,South,187,1.0,4.0,100,0.00,,,0.00,0.000000,,2013-09-02 03:02:00,
2013-09-01 23:11:00,77.0,77.0,-100.00,South,187,1.0,4.0,100,0.00,,,0.00,0.000000,,2013-09-02 03:11:00,
2013-09-01 23:22:00,77.0,77.0,-100.00,South,187,1.0,4.0,100,0.00,,,0.00,0.000000,,2013-09-02 03:22:00,
2013-09-01 23:56:00,76.0,76.0,-100.00,South,171,2.0,6.0,100,0.00,,,0.00,0.000000,,2013-09-02 03:56:00,